Fairbanks, AK

1:03 AM AKST on December 08, 2019 (GMT -0900)
Fairbanks International

Weather History for PAFA - February, 1975

Change the Weather History Date:

Saturday, February 1, 1975

  Actual Average Record
Temperature  
Mean Temperature -18 °F -6 °F  
Max Temperature -11 °F 3 °F 43 °F (1940)
Min Temperature -25 °F -14 °F -57 °F (1910)
Degree Days  
Heating Degree Days 83 71  
Month to date heating degree days 71  
Since 1 July heating degree days 8603  
Cooling Degree Days 0 0  
Month to date cooling degree days 0  
Year to date cooling degree days 0  
Moisture  
Dew Point -30 °F    
Average Humidity 61    
Maximum Humidity 74    
Minimum Humidity 46    
Precipitation  
Precipitation 7.00 in 0.02 in 0.41 in (1977)
Month to date precipitation 0.02  
Year to date precipitation 0.60  
Snow  
Snow 0.00 in 0.30 in 9.50 in (1977)
Month to date snowfall 0.3  
Since 1 July snowfall 48.5  
Snow Depth -    
Sea Level Pressure  
Sea Level Pressure 30.58 in    
Wind  
Wind Speed 4 mph (NNW)    
Max Wind Speed 6 mph    
Max Gust Speed -    
Visibility 12 miles    
Events Fog    
T = Trace of Precipitation, MM = Missing Value Source: NWS Daily Summary

Daily Weather History Graph

Daily Weather History Graph

Search for Another Location

Airport or City:

Astronomy

Feb. 01, 1975 Rise Set
Actual Time 8:38 AM AHST 3:33 PM AHST
Civil Twilight 7:38 AM AHST 4:32 PM AHST
Nautical Twilight 6:38 AM AHST 5:33 PM AHST
Astronomical Twilight 5:41 AM AHST 6:30 PM AHST
Moon No Moon Rise 8:33 AM AHST (2/1)
Length of Visible Light 8h 53m
Length of Day
6h 55m
Waning Gibbous, 65% of the Moon is Illuminated
Feb 1
Waning Gibbous
Feb 2
Last Quarter
Feb 10
New
Feb 18
First Quarter
Feb 25
Full

Hourly Weather History & Observations

Time (AHST) Temp. Windchill Dew Point Humidity Pressure Visibility Wind Dir Wind Speed Gust Speed Precip Events Conditions
12:00 AM -25.1 °F -41.3 °F -31.0 °F 74% 30.61 in 4.0 mi NNE 5.8 mph - N/A Fog Fog
1:00 AM -18.9 °F -32.0 °F -29.9 °F 57% 30.61 in 4.0 mi ENE 4.6 mph - N/A Fog Fog
2:00 AM -17.0 °F -29.7 °F -32.1 °F 46% 30.61 in 6.0 mi NE 4.6 mph - N/A Fog Fog
3:00 AM -23.1 °F - -31.0 °F 67% 30.61 in 10.0 mi Calm Calm - N/A   Clear
4:00 AM -22.0 °F -35.6 °F -31.0 °F 63% 30.61 in 10.0 mi South 4.6 mph - N/A   Clear
5:00 AM -22.0 °F - -35.0 °F 51% 30.61 in 10.0 mi Calm Calm - N/A   Ice Crystals
6:00 AM -23.1 °F -38.9 °F -33.0 °F 60% 30.61 in 10.0 mi North 5.8 mph - N/A   Ice Crystals
7:00 AM -20.9 °F -31.7 °F -32.1 °F 56% 30.61 in 10.0 mi NNW 3.5 mph - N/A   Ice Crystals
8:00 AM -22.0 °F -33.0 °F -36.0 °F 48% 30.61 in 80.0 mi North 3.5 mph - N/A   Ice Crystals
9:00 AM -25.1 °F -36.5 °F -31.0 °F 74% 30.60 in 80.0 mi North 3.5 mph - N/A   Partly Cloudy
10:00 AM -22.0 °F -35.6 °F -33.0 °F 57% 30.60 in 80.0 mi West 4.6 mph - N/A   Partly Cloudy
11:00 AM -18.0 °F -30.9 °F -29.0 °F 57% 30.60 in 60.0 mi NE 4.6 mph - N/A   Scattered Clouds
12:00 PM -15.0 °F - -27.0 °F 55% 30.59 in 60.0 mi Calm Calm - N/A   Clear
1:00 PM -14.1 °F -23.9 °F -23.1 °F 64% 30.58 in 80.0 mi WSW 3.5 mph - N/A   Clear
2:00 PM -11.9 °F -21.5 °F -20.0 °F 67% 30.55 in 80.0 mi WSW 3.5 mph - N/A   Clear
3:00 PM -11.0 °F -20.4 °F -18.9 °F 68% 30.56 in 80.0 mi WSW 3.5 mph - N/A   Clear
4:00 PM -14.1 °F -23.9 °F -23.1 °F 64% 30.54 in 80.0 mi North 3.5 mph - N/A   Clear
5:00 PM -18.0 °F - -29.9 °F 55% 30.54 in 40.0 mi Calm Calm - N/A   Clear
6:00 PM -20.0 °F -30.7 °F -29.0 °F 63% 30.56 in 20.0 mi WNW 3.5 mph - N/A   Clear
7:00 PM -20.9 °F -31.7 °F -32.1 °F 56% 30.57 in 20.0 mi NW 3.5 mph - N/A   Clear
8:00 PM -23.1 °F -34.2 °F -33.0 °F 60% 30.57 in 15.0 mi North 3.5 mph - N/A   Clear
9:00 PM -25.1 °F -41.3 °F -31.0 °F 74% 30.57 in 15.0 mi North 5.8 mph - N/A   Clear
10:00 PM -23.1 °F - -33.0 °F 60% 30.56 in 15.0 mi Calm Calm - N/A   Clear
11:00 PM -25.1 °F -39.1 °F -31.0 °F 74% 30.55 in 15.0 mi NNE 4.6 mph - N/A   Clear